Regional Weather Roundup
Issued by NWS

Home | Current Version | Previous Version | Text Only | Print | Product List | Glossary On
Versions: 1 2 3 4 5 6 7 8 9 10 11 12 13 14 15 16 17 18 19 20 21 22 23 24 25 26 27
000
ASUS42 KTBW 270216
RWRFL
FLORIDA REGIONAL WEATHER ROUNDUP
NATIONAL WEATHER SERVICE TAMPA BAY RUSKIN FL
1000 PM EDT MON SEP 26 2016

NOTE: "FAIR" INDICATES FEW OR NO CLOUDS BELOW 12,000 FEET WITH NO
SIGNIFICANT WEATHER AND/OR OBSTRUCTIONS TO VISIBILITY.

FLZ001>010-012>015-112-114-115-270300-
PANHANDLE FLORIDA

CITY           SKY/WX    TMP DP  RH WIND       PRES   REMARKS
PENSACOLA      CLEAR     75  72  90 NE3       29.97R
PENSACOLA NAS  MOCLDY    74  73  97 N3        29.97R
MILTON NAS     MOCLDY    71  71 100 CALM      29.98S
CRESTVIEW      CLOUDY    72  70  93 CALM      30.00R
DUKE FIELD     MOCLDY    73  70  92 CALM      29.98R
VALPARAISO     PTCLDY    73  69  85 CALM      29.97R
MARY ESTHER    CLEAR     73  70  91 N3        29.96S
TRI COUNTY     FAIR      71  68  90 E3        30.00R
PANAMA CITY    NOT AVBL
TYNDALL AFB    CLEAR     75  71  87 NE2       29.98R
APALACHICOLA   PTCLDY    72  72 100 CALM      29.97R

STATION/POSITION SKY/WX   TEMP    WIND        PRES    WAVE   SWELL
                          AIR SEA DIR/SP/G            HT/PER HT/PER
                          (F)     (DEG/KT/KT) (MB)    (FT/S) (FT/S)
30.1N   87.6W              82 86  120/  4/  6 1015.0R   1
29.2N   88.2W              83 86   40/  2/  4 1014.4R
28.8N   86.0W              84 86              1015.2R   1
PANAMA CITY BEAC           76 86   40/  5/  7 1015.1R
TOWER C                    81      60/  9/ 10 1015.8R
28.5N   84.5W              83 86   90/  4/  6 1015.1R   1/ 3

$$
FLZ011-016>038-118-127-128-134-139-239-270300-
NORTH FLORIDA

CITY           SKY/WX    TMP DP  RH WIND       PRES   REMARKS
MARIANNA       CLOUDY    73  72  96 CALM      29.98R
TALLAHASSEE    PTCLDY    75  73  93 CALM      29.99R
PERRY          PTCLDY    74  70  85 CALM      30.00R
CROSS CITY     CLOUDY    77  70  78 S7        30.01R
LAKE CITY      FAIR      73  70  88 CALM      30.00R
GAINESVILLE    CLOUDY    79  71  76 CALM      29.99R
WILLISTON      PTCLDY    77  73  88 CALM      30.00R
PALATKA        FAIR      75  75 100 CALM      29.99R
MAYPORT NAS    CLOUDY    79  71  76 E8        29.97R
JACKSONVILLE   MOCLDY    77  74  90 CALM      29.97S
JAX NAS        CLOUDY    82  72  71 NE5       29.98S
FERNANDINA BEA FAIR      81  73  78 E8        29.96S
ST AUGUSTINE   PTCLDY    80  73  79 E8        29.97S
PALM COAST     FAIR     N/A N/A N/A MISG      29.98R

STATION/POSITION SKY/WX   TEMP    WIND        PRES    WAVE   SWELL
                          AIR SEA DIR/SP/G            HT/PER HT/PER
                          (F)     (DEG/KT/KT) (MB)    (FT/S) (FT/S)
SHELL POINT                74     320/  5/ 10 1013.5
KEATON BEACH               78     120/  6/  7 1015.8R
CEDAR KEY                  77     200/ 12/ 16 1016.3R
FERNANDINA                 79 84   40/  2/  6 1014.8R
MAYPORT                    80 84   70/  9/ 11 1015.0R
31.4N   80.9W              81 82   90/ 12/ 16 1015.2R   3/ 5   2/ 9
ST AUGUSTINE               80 84   50/  3/  4 1015.6R

$$
FLZ040-043>046-052-053-057-058-063-144-270300-
INTERIOR CENTRAL FLORIDA

CITY           SKY/WX    TMP DP  RH WIND       PRES   REMARKS
OCALA          CLOUDY    73  70  88 SE3       29.99S
THE VILLAGES     N/A     79  75  89 CALM      29.90R
LEESBURG       CLOUDY    76  71  85 S3        30.00R
SANFORD        CLOUDY    76  72  87 W5        29.99R
ORLANDO EXEC   CLOUDY    75  72  90 CALM      29.99R
ORLANDO INTL   CLOUDY    75  71  87 CALM      29.99R
KISSIMMEE      CLOUDY    75  72  90 S5        30.00R
WINTER HAVEN   MOCLDY    73  68  84 SW6       29.99S
LAKELAND       CLEAR     72  70  94 CALM      29.99F
BARTOW         FAIR      70 N/A N/A CALM      29.99S
OKEECHOBEE     CLOUDY    72  68  88 CALM      29.99R

$$
FLZ041-047-054-059-064-141-147-270300-
EAST CENTRAL FLORIDA

CITY           SKY/WX    TMP DP  RH WIND       PRES   REMARKS
DAYTONA BEACH  MOCLDY    75  72  90 CALM      29.98R
DELAND         MOCLDY    77  72  83 S3        29.99R
NEW SMYRNA BEA PTCLDY    75  70  83 W6        29.98R
JFK SPACE CTR  PTCLDY    74  72  93 CALM      29.97R
CAPE CANAVERAL PTCLDY    76  72  88 SW1       29.97R
PATRICK AFB    MOCLDY    78  69  75 W9        29.98R
MELBOURNE      MOCLDY    73  71  93 SW7       29.99R
VERO BEACH     MOCLDY    77  69  76 CALM      29.98R
FT PIERCE      LGT RAIN  75  73  93 CALM      29.97S
STUART         PTCLDY    82  75  78 VRB5      29.99R

STATION/POSITION SKY/WX   TEMP    WIND        PRES    WAVE   SWELL
                          AIR SEA DIR/SP/G            HT/PER HT/PER
                          (F)     (DEG/KT/KT) (MB)    (FT/S) (FT/S)
28.5N   80.2W              83 84  120/  8/ 10 1014.6S
TRIDENT PIER               76 86   50/  2/  3 1014.4R
28.4N   80.5W                 86                N/A     1/10
27.5N   80.2W                 85                N/A     2/ 9

$$
FLZ050-056-061-142-242-148-248-149-249-151-251-155-255-
160-260-270300-
WEST CENTRAL FLORIDA

CITY           SKY/WX    TMP DP  RH WIND       PRES   REMARKS
CRYSTAL RIVER  FAIR      73  68  83 N6        29.99S
INVERNESS      MOCLDY    73  73 100 CALM      29.99F
BROOKSVILLE    CLOUDY    72  71  97 CALM      29.99R
CLEARWATER AIR FAIR      73  72  94 CALM      29.98R
ST PETE CLEARW PTCLDY    75  73  93 CALM      29.98R
TAMPA INTL     MOCLDY    78  69  73 SE3       29.98S
TAMPA EXEC     MOCLDY    73  70  88 CALM      29.98S
PLANT CITY     PTCLDY    72  72 100 CALM      29.99F
MACDILL AFB    CLOUDY    77  73  87 CALM      29.97S
PETER O KNIGHT CLOUDY    79  72  78 S3        29.97F
ST PETERSBURG  CLOUDY    78  72  81 CALM      29.96R
SARASOTA       CLOUDY    75  71  87 SE3       29.94F
VENICE         FAIR      75  73  94 E7        29.95F

STATION/POSITION SKY/WX   TEMP    WIND        PRES    WAVE   SWELL
                          AIR SEA DIR/SP/G            HT/PER HT/PER
                          (F)     (DEG/KT/KT) (MB)    (FT/S) (FT/S)
27.3N   84.2W                 86                N/A     1/ 2
CLEARWATER BEACH           79 87  120/  4/  6 1015.0R
MIDDLE TAMPA BAY                  180/  8/  9 1015.1R
VENICE                     75 87   80/  2/  4 1014.0S

$$
FLZ066-069-070-075>078-162-262-165-265-270300-
SOUTHWEST FLORIDA AND KEYS

CITY           SKY/WX    TMP DP  RH WIND       PRES   REMARKS
PUNTA GORDA    CLOUDY    74  70  87 S8        29.96F
FT MYERS       CLOUDY    77  70  79 CALM      29.96F
SOUTHWEST INTL CLOUDY    76  69  79 S6        29.97F
NAPLES         CLOUDY    79  72  79 CALM      29.98S
MARATHON       CLOUDY    80  75  84 CALM      29.98S
KEY WEST NAS   CLOUDY    80  73  79 NE7       29.98S
KEY WEST INTL  CLOUDY    81  76  84 N5        29.98S

STATION/POSITION SKY/WX   TEMP    WIND        PRES    WAVE   SWELL
                          AIR SEA DIR/SP/G            HT/PER HT/PER
                          (F)     (DEG/KT/KT) (MB)    (FT/S) (FT/S)
NAPLES                        87              1015.4R
26.0N   85.6W              82 85  100/  8/ 12 1016.1R   1/ 4   2/ 4
DRY TORTUGAS               80     100/  6/  9 1015.0S
SAND KEY                   82                 1015.7R
LONG KEY                   82 85   10/  2/  2 1015.7R
MOLASSES REEF              82 85   CALM  /  1 1015.8

$$
FLZ067-068-071>074-168-172>174-270300-
SOUTHEAST FLORIDA

CITY           SKY/WX    TMP DP  RH WIND       PRES   REMARKS
W PALM BEACH   CLOUDY    82  72  71 S6        29.98F
FT LAUDER-EXEC CLOUDY    81  73  76 S3        29.98S
FT LAUDERDALE  CLOUDY    82  73  74 S3        29.98S
POMPANO BEACH  CLOUDY    81  74  79 CALM      29.98S
PEMBROKE PINES CLOUDY    81  74  79 CALM      30.00S
OPA LOCKA      MOCLDY    78  73  84 SW3       29.99S
MIAMI          CLOUDY    81  75  82 SW5       29.99S
WEST KENDALL   CLOUDY    77  75  93 NW6       29.99S
HOMESTEAD      CLOUDY    79  75  89 SE5       29.98S

STATION/POSITION SKY/WX   TEMP    WIND        PRES    WAVE   SWELL
                          AIR SEA DIR/SP/G            HT/PER HT/PER
                          (F)     (DEG/KT/KT) (MB)    (FT/S) (FT/S)
PORT EVERGLADES            82     190/  2/  3 1015.3R
VIRGINIA KEY               82 90  190/  4/  4 1015.8R
LAKE WORTH                        140/  4/  5   N/A
FOWEY ROCKS                82 85  180/  5/  6 1016.2R
SETTLEMENT POINT           81     150/  7/  9 1016.1R

$$





USA.gov is the U.S. government's official web portal to all federal, state and local government web resources and services.